WAT2918 LTBA-LHBP

Flight info

Callsign WAT2918
Flight time N/A
Altitude 36000
Route TUDBU Q26 UPAMA DCT KEZAL
Aircraft A320/M-SDE3FGHIRWY/LB1

Departure

Time 2026-04-30 22:33
Airport İstanbul Atatürk Airport (LTBA)

Arrival

Time N/A
Airport Budapest Liszt Ferenc International Airport (LHBP)
Time Latitude Longitude Altitude Speed Heading
2026-04-30 22:23 40.97240 28.81793 92 ft 0 kts 329°
2026-04-30 22:27 40.97240 28.81794 92 ft 0 kts 329°
2026-04-30 22:27 40.97230 28.81802 91 ft 2 kts 328°
2026-04-30 22:27 40.97204 28.81823 90 ft 2 kts 328°
2026-04-30 22:28 40.97186 28.81841 89 ft 2 kts 298°
2026-04-30 22:28 40.97182 28.81859 88 ft 2 kts 273°
2026-04-30 22:29 40.97188 28.81891 89 ft 0 kts 240°
2026-04-30 22:30 40.97105 28.81740 85 ft 12 kts 237°
2026-04-30 22:31 40.96948 28.81405 87 ft 13 kts 240°
2026-04-30 22:32 40.96810 28.81123 92 ft 11 kts 229°
2026-04-30 22:32 40.96678 28.81229 88 ft 21 kts 63°
2026-04-30 22:33 40.97708 28.83478 467 ft 159 kts 57°
2026-04-30 22:33 40.98824 28.85928 1964 ft 158 kts 56°
2026-04-30 22:34 41.00773 28.90132 3536 ft 208 kts 57°
2026-04-30 22:35 41.02414 28.93681 4619 ft 245 kts 57°
2026-04-30 22:36 41.08253 28.96140 7500 ft 272 kts 321°
2026-04-30 22:36 41.09782 28.94687 8281 ft 278 kts 322°
2026-04-30 22:37 41.14724 28.90370 10647 ft 293 kts 322°
2026-04-30 22:37 41.16485 28.88873 11077 ft 310 kts 322°
2026-04-30 22:37 41.20349 28.85611 11842 ft 343 kts 323°
2026-04-30 22:38 41.24333 28.82278 13228 ft 352 kts 323°
2026-04-30 22:38 41.28493 28.78796 14622 ft 359 kts 322°
2026-04-30 22:39 41.30615 28.77015 15334 ft 361 kts 322°
2026-04-30 22:39 41.37059 28.71593 17310 ft 369 kts 322°
2026-04-30 22:40 41.43608 28.66073 19166 ft 377 kts 322°
2026-04-30 22:41 41.50325 28.60397 20811 ft 387 kts 321°
2026-04-30 22:41 41.54925 28.56497 21873 ft 392 kts 321°
2026-04-30 22:42 41.64241 28.48559 23890 ft 401 kts 318°
2026-04-30 22:43 41.67977 28.43240 24853 ft 386 kts 295°
2026-04-30 22:43 41.70242 28.36791 25769 ft 385 kts 288°
2026-04-30 22:44 41.72373 28.30197 26684 ft 389 kts 287°
2026-04-30 22:45 41.76699 28.16858 28349 ft 394 kts 287°
2026-04-30 22:45 41.79099 28.10200 29166 ft 399 kts 292°
2026-04-30 22:46 41.82033 28.03935 30297 ft 397 kts 297°
2026-04-30 22:47 41.88584 27.92166 32085 ft 391 kts 299°
2026-04-30 22:47 41.91830 27.86364 32818 ft 389 kts 299°
2026-04-30 22:48 41.95085 27.80556 33515 ft 387 kts 300°
2026-04-30 22:49 42.00499 27.72470 34412 ft 392 kts 306°
2026-04-30 22:49 42.06222 27.64619 34974 ft 394 kts 307°
2026-04-30 22:50 42.13898 27.54110 35543 ft 398 kts 308°
2026-04-30 22:51 42.17789 27.48784 35764 ft 401 kts 308°
2026-04-30 22:51 42.21687 27.43418 35978 ft 403 kts 308°
2026-04-30 22:52 42.23647 27.40711 36084 ft 404 kts 308°
2026-04-30 22:53 42.31508 27.29815 36175 ft 405 kts 308°
2026-04-30 22:53 42.37400 27.21608 36182 ft 406 kts 308°
2026-04-30 22:55 42.47232 27.07891 36197 ft 406 kts 308°
2026-04-30 22:56 42.55110 26.96854 36196 ft 407 kts 308°
2026-04-30 22:57 42.64959 26.82992 36216 ft 408 kts 309°
2026-04-30 22:58 42.72846 26.71847 36226 ft 408 kts 309°
2026-04-30 22:59 42.84595 26.55161 36187 ft 409 kts 309°